SCP
-0 -0 -0 -0 -0 -0 -0 -0 -0 -0 -0 -0 -0 -0 -0 -0 -0 -0 0 0 0 0 0 0 0 0 0 0 0 -0 0 0 -0 0 0 0 0 0 0 -0 -0 -0 -0 0 -0 0 0
-0 -0 -0 -0 -0 -0 -0 -0 -0 -0 -0 -0 -0 -0 -0 -0 -0 -0 0 0 0 0 0 0 0 0 0 0 0 0 0 0 0 0 0 0 0 0 0 -0 -0 -0 0 0 0 0 0
-0 -0 -0 -0 -0 -0 -0 -0 -0 -0 -0 -0 -0 -0 -0 -0 -0 -0 -0 -0 0 0 -0 0 0 0 0 0 0 0 0 0 0 -0 0 0 0 0 0 0 0 0 0 0 -0 0 0
-0 -0 -0 -0 -0 -0 -0 0 0 0 0 0 0 0 0 0 0 0 0 0 -0 -0 0 -0 -0 0 -0 0 0 0 -0 0 0 0 0 0 0 0 0 0 0 0 0 0 -0 0 0
-0 -0 -0 -0 -0 0 0 0 0 0 0 0 0 0 0 0 0 0 0 0 -0 -0 0 -0 0 0 0 0 0 0 0 0 0 0 0 0 0 0 0 0 0 0 0 0 0 0 0
-0 -0 -0 -0 0 0 0 0 0 0 0 0 0 0 0 0 0 0 0 0 -0 0 0 -0 0 0 0 0 0 0 0 0 0 0 0 0 0 0 0 0 0 0 0 0 0 0 0
0 0 0 0 0 0 0 0 0 0 0 0 0 0 0 0 0 0 0 -0 -0 -0 0 0 0 0 0 0 0 0 0 0 0 0 0 0 0 0 0 0 0 0 0 0 0 -0 0
0 0 0 0 0 0 0 0 0 0 0 0 0 0 -0 -0 0 0 0 -0 -0 -0 0 0 0 0 0 0 0 0 0 0 0 0 0 0 0 0 0 0 0 0 0 0 0 -0 0
0 0 0 0 0 0 0 0 0 0 0 0 0 0 0 0 0 0 0 0 0 0 -0 0 -0 0 0 0 0 0 0 0 0 0 0 0 0 0 0 0 0 0 0 0 0 0 0
0 0 0 0 0 0 0 0 0 0 0 0 0 0 0 0 0 0 0 0 0 0 0 0 0 0 0 0 0 0 0 0 0 0 0 0 0 0 0 0 0 0 0 0 0 -0 0
0 0 0 0 0 0 0 0 0 0 0 0 0 0 0 0 0 0 0 0 0 0 0 0 0 -0 -0 0 0 0 0 0 0 0 0 0 0 0 0 0 0 0 0 0 0 -0 0
0 0 0 0 0 0 0 0 0 0 0 0 0 0 0 0 0 0 0 0 0 0 0 0 0 -0 0 0 0 -0 0 0 0 0 0 0 0 0 0 0 0 0 0 0 0 -0 0
0 0 0 0 0 0 0 0 0 0 0 0 0 -0 0 0 0 0 0 0 0 0 0 0 -0 -0 -0 0 -0 -0 -0 0 0 0 0 0 0 0 0 0 -0 0 0 0 0 0 0
0 0 0 0 0 0 0 0 0 0 0 0 -0 -0 0 0 0 0 0 0 0 0 0 0 -0 -0 -0 -0 -0 -0 -0 0 0 0 0 0 0 0 0 0 0 0 0 0 0 0 0
0 0 0 0 0 0 0 0 0 0 0 -0 -0 0 0 0 0 0 0 0 0 0 0 -0 -0 -0 -0 -0 -0 -0 -0 -0 -0 0 0 0 0 0 0 0 0 0 0 0 0 0 0
0 0 0 0 0 0 0 0 0 -0 0 0 0 0 0 0 0 0 0 0 0 0 0 0 -0 -0 -0 -0 -0 -0 -0 0 0 0 0 0 0 0 0 0 0 0 0 0 0 0 0
0 0 0 0 0 0 0 0 0 -0 -0 -0 0 0 0 0 0 0 0 0 0 0 0 0 0 -0 -0 -0 -0 -0 -0 -0 -0 -0 0 0 0 0 -0 0 0 0 0 0 0 0 0
0 0 0 0 0 0 0 0 0 0 0 0 0 0 0 -0 0 0 0 0 0 0 0 0 0 0 0 0 -0 -0 -0 -0 -0 -0 0 0 0 0 0 0 0 0 0 0 0 0 0
0 0 0 0 0 0 0 0 0 0 0 0 0 0 0 0 0 0 0 0 0 0 0 0 0 0 0 0 0 -0 -0 -0 -0 -0 0 0 0 0 0 -0 0 0 0 0 0 0 0
0 0 0 0 0 0 0 0 0 0 0 0 0 0 0 0 0 0 0 0 0 0 0 0 0 0 0 0 0 -0 -0 -0 -0 -0 -0 0 0 0 0 0 0 0 0 0 0 0 0
0 0 0 0 0 0 0 0 0 0 0 0 0 0 0 0 0 0 0 0 0 0 0 0 0 0 0 0 0 -0 -0 -0 -0 -0 -0 0 0 0 0 0 0 0 0 0 0 0 0
0 0 0 0 0 0 0 0 0 0 0 0 0 0 0 0 0 0 0 0 0 0 0 -0 0 0 0 0 0 0 -0 -0 -0 -0 -0 0 0 0 0 0 0 0 0 0 0 0 0
0 0 0 0 0 0 0 0 0 0 0 0 0 0 0 0 0 0 0 0 0 0 0 -0 -0 -0 0 0 0 0 -0 0 -0 -0 -0 0 0 0 0 0 0 0 0 0 0 0 0
0 0 0 -0 0 0 0 0 0 0 0 0 0 0 0 0 0 0 0 0 0 0 0 -0 -0 0 0 -0 -0 -0 -0 -0 -0 -0 -0 0 0 0 0 0 0 0 0 0 0 0 0
0 0 -0 0 0 0 0 0 0 0 0 0 0 0 0 0 0 0 0 0 0 0 0 0 0 0 0 0 -0 -0 -0 -0 -0 0 0 0 0 0 0 0 0 0 0 0 0 0 0
0 0 -0 0 0 0 0 0 0 0 0 0 0 0 0 0 0 0 0 0 0 0 0 0 0 0 -0 -0 -0 -0 0 0 0 0 -0 0 0 0 0 0 0 0 0 0 0 0 0
0 0 0 -0 0 0 0 0 0 0 0 0 0 0 0 0 0 0 0 0 0 0 0 0 -0 -0 -0 0 0 0 0 0 0 0 0 0 0 0 0 0 0 0 0 0 0 0 0
0 0 0 0 0 0 0 0 0 0 0 0 0 0 0 0 0 0 0 0 0 0 0 0 0 -0 0 -0 0 0 0 0 0 0 0 0 0 0 0 0 0 0 0 0 0 0 0
0 0 0 0 0 0 0 0 0 0 0 0 0 0 0 0 0 0 0 0 0 0 0 0 0 0 0 -0 0 0 0 0 0 0 0 0 0 0 0 0 0 0 0 0 0 0 0
Wind_Speed_500mb
40 42 43 43 44 45 46 47 48 49 50 52 53 54 55 56 56 55 51 50 51 53 51 52 44 35 25 15 49 17 17 7 34 69 67 63 60 39 17 28 43 30 37 39 52 32 31
42 43 44 45 47 48 49 51 53 54 55 56 57 57 57 59 59 55 49 50 48 54 53 51 43 38 20 14 14 13 46 18 22 67 71 62 44 64 17 33 31 23 52 57 46 27 3
44 45 45 46 48 51 52 53 53 54 56 58 59 58 58 59 59 57 48 46 55 72 54 35 34 35 30 60 14 12 29 39 32 42 74 75 40 51 30 7 75 59 37 30 26 41 20
44 46 47 49 50 51 52 54 56 59 60 62 64 64 65 65 63 60 49 49 59 49 37 38 27 25 28 22 21 42 35 44 42 34 52 64 69 44 30 28 22 19 16 23 18 34 23
45 47 48 49 51 51 53 54 57 60 64 67 71 70 69 67 62 56 45 54 60 29 29 50 13 12 28 12 22 19 44 52 49 35 44 48 51 38 22 7 11 9 19 11 10 41 20
44 46 47 48 49 50 53 56 61 65 69 72 74 76 72 67 59 45 44 53 54 31 30 37 10 18 15 10 26 35 17 50 55 43 36 38 32 12 15 10 23 11 9 13 21 28 20
42 44 47 48 49 52 55 58 63 66 68 70 75 82 81 68 57 36 41 52 63 21 53 48 59 61 85 65 68 38 12 48 51 46 17 39 22 37 48 32 10 11 14 19 15 19 45
43 45 46 48 50 54 58 61 64 68 73 77 79 82 87 77 54 22 29 39 39 43 40 59 28 33 43 44 32 41 17 37 32 34 21 9 41 37 15 20 22 30 20 27 30 29 15
43 45 47 49 52 56 60 64 68 71 73 77 79 81 84 81 45 24 27 37 42 49 8 35 16 31 43 30 14 48 26 18 10 15 31 39 13 36 31 31 33 32 31 29 18 15 12
43 44 47 49 53 57 62 66 70 72 71 74 79 84 86 71 21 39 34 42 43 58 7 14 16 22 55 28 7 51 32 34 14 30 23 32 43 37 40 42 41 35 37 36 27 16 14
41 44 47 51 55 60 63 67 71 74 73 72 77 81 73 44 37 34 44 42 47 10 6 10 18 23 50 32 30 43 51 27 37 22 19 44 43 47 44 55 39 38 21 31 33 11 3
40 43 47 53 58 63 68 70 72 76 78 76 76 74 55 25 25 33 46 55 12 10 10 10 18 35 44 50 43 46 51 52 39 36 40 32 39 41 50 35 38 27 22 21 22 8 18
41 44 48 53 59 65 70 73 74 79 82 81 77 71 42 18 20 36 44 49 10 7 20 18 16 28 16 35 26 33 32 28 13 19 35 39 47 46 28 38 25 32 14 17 9 15 18
43 45 49 54 60 65 70 75 79 83 85 86 83 67 19 7 17 30 40 11 6 18 5 11 19 18 19 39 16 33 28 24 29 33 15 32 38 50 35 30 36 24 31 12 19 10 22
44 48 52 56 61 65 69 74 79 83 86 88 87 33 20 27 28 23 16 6 8 12 13 14 15 9 12 27 20 18 19 2 23 40 26 18 40 16 52 43 36 28 33 20 10 2 6
47 50 55 58 62 64 67 71 76 80 85 82 80 28 17 39 21 18 6 11 6 17 13 10 10 11 13 20 15 27 11 10 28 34 38 9 19 29 54 33 44 46 17 20 8 22 9
48 51 55 58 61 63 65 67 72 76 79 77 63 24 19 37 19 12 4 7 10 31 18 8 7 6 6 10 7 15 12 26 27 36 39 22 9 21 5 30 53 11 35 13 13 12 17
49 51 54 59 60 61 63 64 68 70 74 69 39 8 33 54 11 10 6 14 24 23 14 8 5 5 6 9 8 6 14 8 22 22 29 19 10 13 26 25 5 50 14 24 19 19 7
50 51 54 57 58 60 60 63 63 61 59 61 35 17 37 27 8 9 14 14 12 20 17 6 3 5 8 7 7 5 8 17 19 11 10 17 6 16 16 9 5 11 27 17 12 13 20
50 52 53 56 58 58 58 59 58 54 48 46 18 7 19 16 20 3 10 12 18 28 9 13 8 8 5 6 10 5 12 10 18 20 14 23 9 19 15 12 19 8 22 17 33 18 20
51 52 53 56 57 57 57 56 55 50 39 31 7 4 1 8 12 20 17 12 22 15 8 16 9 6 6 9 6 8 14 19 14 8 6 4 15 13 35 51 49 47 24 26 24 24 27
51 52 55 56 58 58 56 54 51 45 35 17 8 7 6 18 17 16 10 7 20 15 12 19 10 27 23 13 15 23 25 14 6 6 1 9 10 23 34 33 33 34 15 13 30 21 13
51 54 56 59 60 58 56 52 46 36 23 12 15 25 16 11 5 5 5 7 19 34 21 26 27 28 24 23 33 43 49 40 16 12 8 9 7 12 12 17 12 7 15 3 16 20 22
54 58 60 61 59 56 53 47 40 29 20 24 32 36 10 7 8 9 16 34 32 31 24 46 41 9 26 57 49 42 35 28 34 25 31 14 13 8 10 15 12 11 39 30 34 35 37
57 61 61 60 55 50 48 42 37 29 17 25 31 34 13 6 14 16 26 21 27 24 26 20 18 36 36 18 3 10 7 8 20 29 33 19 7 8 4 7 4 17 31 22 15 25 39
61 61 59 55 48 46 43 41 38 32 21 25 28 28 31 7 8 20 13 16 8 6 9 9 47 26 37 5 2 2 5 5 8 14 22 14 21 13 8 4 7 27 52 75 14 24 43
60 59 55 50 45 44 41 43 43 35 19 18 24 27 23 9 17 19 8 7 8 5 7 15 31 20 36 11 6 6 1 7 8 10 4 8 9 7 8 4 9 52 72 41 21 7 36
58 54 49 45 45 47 47 47 40 21 12 11 14 13 18 9 26 20 27 17 13 5 5 19 11 16 11 12 8 8 7 7 8 8 3 3 5 9 13 11 10 54 30 21 17 41 43
54 49 45 45 49 50 50 44 26 11 5 3 4 9 12 20 17 25 24 24 17 15 12 13 3 12 12 6 5 7 4 9 13 7 10 8 5 3 5 4 8 13 24 28 38 38 49
Wind_Direction_500mb
28 27 27 26 22 19 16 14 11 9 6 5 1 358 355 354 352 349 347 342 341 332 325 319 315 313 294 250 251 212 186 115 177 185 193 191 195 196 197 204 239 236 249 253 247 237 254
27 26 24 21 18 16 14 12 10 8 5 2 360 356 354 352 350 349 350 349 347 341 328 320 304 299 266 247 310 191 224 234 201 192 195 192 201 197 219 233 205 232 238 252 260 216 144
25 24 21 18 16 15 12 10 7 5 2 0 359 355 352 351 350 346 348 351 345 337 327 310 297 288 255 249 233 169 204 223 235 217 200 202 188 191 220 257 236 248 264 264 253 153 174
24 22 20 18 16 14 12 9 6 4 1 359 357 355 351 352 349 344 350 347 346 344 4 352 303 275 258 282 260 226 208 222 225 229 223 211 199 216 245 268 312 227 241 253 245 180 162
23 22 20 18 16 13 11 8 7 6 3 360 356 353 349 349 347 341 348 345 346 342 335 348 324 283 265 270 273 306 232 222 206 210 213 205 200 223 246 220 308 243 241 223 221 183 153
24 22 21 18 14 11 10 9 7 6 4 1 357 350 346 344 347 342 343 346 359 7 328 335 316 301 281 354 320 305 281 203 194 191 195 198 202 168 221 161 215 220 195 227 230 194 159
23 22 20 16 12 10 8 6 4 2 359 357 355 352 344 343 346 342 347 359 13 346 312 284 270 269 282 293 291 285 329 197 203 181 177 196 193 206 213 210 233 250 216 251 264 203 195
22 20 17 13 9 8 7 5 3 0 357 353 350 347 343 341 344 352 359 29 7 328 303 319 324 282 284 310 299 265 303 206 188 209 179 158 218 217 192 210 210 236 242 253 268 269 171
20 17 14 12 9 8 6 5 2 360 355 350 347 345 340 338 343 345 359 359 355 353 290 298 353 16 0 322 244 295 292 277 212 214 203 209 233 210 201 224 220 222 227 243 233 286 304
17 15 11 8 7 6 3 1 358 356 352 348 346 346 340 333 0 357 357 347 353 340 32 279 1 14 358 344 263 359 315 243 256 222 219 226 236 198 212 220 209 221 225 240 248 247 253
12 9 5 3 2 1 360 358 355 352 350 348 345 349 343 341 347 359 354 354 346 24 327 61 17 19 1 31 332 344 4 335 224 251 180 223 200 219 216 218 205 224 218 233 241 229 260
4 2 360 358 357 355 355 355 351 349 349 347 347 348 337 345 14 3 355 350 5 52 268 329 37 357 2 15 350 355 5 9 306 223 261 233 241 210 228 227 222 206 213 248 241 185 242
356 354 353 353 353 352 350 348 348 348 350 347 347 348 326 333 357 1 347 353 44 114 342 360 357 7 20 352 343 15 5 14 11 327 235 232 236 237 223 220 223 218 153 223 256 227 230
349 348 347 347 347 346 347 345 346 347 349 348 348 348 348 80 358 351 341 34 78 348 33 325 353 19 23 3 347 348 1 358 30 9 313 216 234 217 217 214 206 214 207 163 209 196 229
342 342 341 342 341 343 343 343 344 344 348 350 349 11 73 22 329 313 335 10 221 343 322 350 1 26 16 356 330 352 357 162 41 33 10 331 234 248 222 218 195 203 213 184 143 244 150
334 336 337 338 339 342 340 342 342 344 346 352 350 359 49 350 320 296 96 232 268 312 347 42 50 46 340 349 11 349 339 317 352 23 359 304 292 236 231 213 223 210 166 188 177 223 236
331 334 334 335 338 339 338 341 340 345 345 352 352 341 337 338 331 303 178 258 326 358 41 59 51 347 304 318 358 316 294 337 358 342 345 317 259 299 268 215 215 195 207 198 158 157 216
329 331 331 333 337 338 339 340 340 346 343 354 350 341 340 339 42 21 33 326 320 5 14 40 57 21 325 305 283 324 297 275 322 4 331 319 285 283 240 237 269 214 192 197 203 213 208
328 329 331 332 335 337 337 338 340 346 348 347 338 298 342 23 47 351 321 312 315 358 344 51 335 98 206 238 258 184 265 296 304 22 12 348 344 314 305 21 276 208 218 208 159 140 205
328 330 333 332 334 335 336 337 339 343 347 347 335 345 335 20 31 40 332 289 327 331 292 9 272 307 311 295 216 245 265 307 352 317 350 5 261 254 278 296 329 257 226 203 192 197 192
328 332 330 332 333 334 334 334 335 338 346 347 343 327 2 308 335 325 296 266 300 325 351 352 332 300 297 270 270 239 295 267 357 326 84 355 269 263 268 277 272 260 257 208 195 186 195
330 329 331 332 332 332 330 332 332 333 339 343 303 302 275 278 272 295 292 292 308 326 346 311 282 317 310 231 224 276 260 266 157 176 338 232 267 305 290 257 220 239 249 260 209 180 179
329 329 331 330 330 329 329 330 328 331 327 320 290 288 262 250 267 264 255 294 296 309 290 267 315 306 287 276 271 278 253 256 204 165 197 202 256 346 269 320 186 78 342 335 203 184 183
330 330 330 328 329 330 330 329 326 325 302 283 291 286 217 262 224 228 260 279 289 288 287 296 308 322 287 301 289 297 274 264 228 212 190 209 243 208 268 316 148 127 34 29 77 42 14
331 330 329 329 331 333 330 329 326 319 300 287 294 283 246 257 258 276 272 280 303 303 280 274 312 303 318 281 294 287 352 254 234 211 208 206 243 269 291 271 226 22 11 340 343 37 9
331 330 330 329 334 335 333 331 330 325 306 290 295 284 261 270 245 263 280 294 303 303 303 276 339 350 352 51 258 234 279 256 45 344 164 217 247 231 307 335 52 9 333 332 141 39 358
332 331 332 333 338 337 336 331 329 328 321 291 290 298 268 249 286 315 268 279 275 285 284 297 333 337 16 20 303 220 211 348 37 20 54 268 264 241 244 72 65 359 347 20 64 27 13
333 334 335 337 340 338 334 331 331 329 324 295 318 327 299 265 299 310 310 269 279 234 312 317 353 4 355 21 345 337 351 360 49 20 4 29 14 2 336 51 30 350 348 61 334 8 17
334 336 338 341 343 337 334 334 338 338 287 241 317 334 340 267 288 330 344 9 333 323 291 326 353 3 17 12 334 295 314 9 3 59 359 48 88 297 21 159 237 6 315 301 11 9 0
Wind_Speed_850mb
40 42 43 43 44 45 46 47 48 49 50 52 53 54 55 56 56 55 51 50 51 53 51 52 44 35 25 15 49 17 17 7 34 69 67 63 60 39 17 28 43 30 37 39 52 32 31
42 43 44 45 47 48 49 51 53 54 55 56 57 57 57 59 59 55 49 50 48 54 53 51 43 38 20 14 14 13 46 18 22 67 71 62 44 64 17 33 31 23 52 57 46 27 3
44 45 45 46 48 51 52 53 53 54 56 58 59 58 58 59 59 57 48 46 55 72 54 35 34 35 30 60 14 12 29 39 32 42 74 75 40 51 30 7 75 59 37 30 26 41 20
44 46 47 49 50 51 52 54 56 59 60 62 64 64 65 65 63 60 49 49 59 49 37 38 27 25 28 22 21 42 35 44 42 34 52 64 69 44 30 28 22 19 16 23 18 34 23
45 47 48 49 51 51 53 54 57 60 64 67 71 70 69 67 62 56 45 54 60 29 29 50 13 12 28 12 22 19 44 52 49 35 44 48 51 38 22 7 11 9 19 11 10 41 20
44 46 47 48 49 50 53 56 61 65 69 72 74 76 72 67 59 45 44 53 54 31 30 37 10 18 15 10 26 35 17 50 55 43 36 38 32 12 15 10 23 11 9 13 21 28 20
42 44 47 48 49 52 55 58 63 66 68 70 75 82 81 68 57 36 41 52 63 21 53 48 59 61 85 65 68 38 12 48 51 46 17 39 22 37 48 32 10 11 14 19 15 19 45
43 45 46 48 50 54 58 61 64 68 73 77 79 82 87 77 54 22 29 39 39 43 40 59 28 33 43 44 32 41 17 37 32 34 21 9 41 37 15 20 22 30 20 27 30 29 15
43 45 47 49 52 56 60 64 68 71 73 77 79 81 84 81 45 24 27 37 42 49 8 35 16 31 43 30 14 48 26 18 10 15 31 39 13 36 31 31 33 32 31 29 18 15 12
43 44 47 49 53 57 62 66 70 72 71 74 79 84 86 71 21 39 34 42 43 58 7 14 16 22 55 28 7 51 32 34 14 30 23 32 43 37 40 42 41 35 37 36 27 16 14
41 44 47 51 55 60 63 67 71 74 73 72 77 81 73 44 37 34 44 42 47 10 6 10 18 23 50 32 30 43 51 27 37 22 19 44 43 47 44 55 39 38 21 31 33 11 3
40 43 47 53 58 63 68 70 72 76 78 76 76 74 55 25 25 33 46 55 12 10 10 10 18 35 44 50 43 46 51 52 39 36 40 32 39 41 50 35 38 27 22 21 22 8 18
41 44 48 53 59 65 70 73 74 79 82 81 77 71 42 18 20 36 44 49 10 7 20 18 16 28 16 35 26 33 32 28 13 19 35 39 47 46 28 38 25 32 14 17 9 15 18
43 45 49 54 60 65 70 75 79 83 85 86 83 67 19 7 17 30 40 11 6 18 5 11 19 18 19 39 16 33 28 24 29 33 15 32 38 50 35 30 36 24 31 12 19 10 22
44 48 52 56 61 65 69 74 79 83 86 88 87 33 20 27 28 23 16 6 8 12 13 14 15 9 12 27 20 18 19 2 23 40 26 18 40 16 52 43 36 28 33 20 10 2 6
47 50 55 58 62 64 67 71 76 80 85 82 80 28 17 39 21 18 6 11 6 17 13 10 10 11 13 20 15 27 11 10 28 34 38 9 19 29 54 33 44 46 17 20 8 22 9
48 51 55 58 61 63 65 67 72 76 79 77 63 24 19 37 19 12 4 7 10 31 18 8 7 6 6 10 7 15 12 26 27 36 39 22 9 21 5 30 53 11 35 13 13 12 17
49 51 54 59 60 61 63 64 68 70 74 69 39 8 33 54 11 10 6 14 24 23 14 8 5 5 6 9 8 6 14 8 22 22 29 19 10 13 26 25 5 50 14 24 19 19 7
50 51 54 57 58 60 60 63 63 61 59 61 35 17 37 27 8 9 14 14 12 20 17 6 3 5 8 7 7 5 8 17 19 11 10 17 6 16 16 9 5 11 27 17 12 13 20
50 52 53 56 58 58 58 59 58 54 48 46 18 7 19 16 20 3 10 12 18 28 9 13 8 8 5 6 10 5 12 10 18 20 14 23 9 19 15 12 19 8 22 17 33 18 20
51 52 53 56 57 57 57 56 55 50 39 31 7 4 1 8 12 20 17 12 22 15 8 16 9 6 6 9 6 8 14 19 14 8 6 4 15 13 35 51 49 47 24 26 24 24 27
51 52 55 56 58 58 56 54 51 45 35 17 8 7 6 18 17 16 10 7 20 15 12 19 10 27 23 13 15 23 25 14 6 6 1 9 10 23 34 33 33 34 15 13 30 21 13
51 54 56 59 60 58 56 52 46 36 23 12 15 25 16 11 5 5 5 7 19 34 21 26 27 28 24 23 33 43 49 40 16 12 8 9 7 12 12 17 12 7 15 3 16 20 22
54 58 60 61 59 56 53 47 40 29 20 24 32 36 10 7 8 9 16 34 32 31 24 46 41 9 26 57 49 42 35 28 34 25 31 14 13 8 10 15 12 11 39 30 34 35 37
57 61 61 60 55 50 48 42 37 29 17 25 31 34 13 6 14 16 26 21 27 24 26 20 18 36 36 18 3 10 7 8 20 29 33 19 7 8 4 7 4 17 31 22 15 25 39
61 61 59 55 48 46 43 41 38 32 21 25 28 28 31 7 8 20 13 16 8 6 9 9 47 26 37 5 2 2 5 5 8 14 22 14 21 13 8 4 7 27 52 75 14 24 43
60 59 55 50 45 44 41 43 43 35 19 18 24 27 23 9 17 19 8 7 8 5 7 15 31 20 36 11 6 6 1 7 8 10 4 8 9 7 8 4 9 52 72 41 21 7 36
58 54 49 45 45 47 47 47 40 21 12 11 14 13 18 9 26 20 27 17 13 5 5 19 11 16 11 12 8 8 7 7 8 8 3 3 5 9 13 11 10 54 30 21 17 41 43
54 49 45 45 49 50 50 44 26 11 5 3 4 9 12 20 17 25 24 24 17 15 12 13 3 12 12 6 5 7 4 9 13 7 10 8 5 3 5 4 8 13 24 28 38 38 49
Wind_Direction_850mb
28 27 27 26 22 19 16 14 11 9 6 5 1 358 355 354 352 349 347 342 341 332 325 319 315 313 294 250 251 212 186 115 177 185 193 191 195 196 197 204 239 236 249 253 247 237 254
27 26 24 21 18 16 14 12 10 8 5 2 360 356 354 352 350 349 350 349 347 341 328 320 304 299 266 247 310 191 224 234 201 192 195 192 201 197 219 233 205 232 238 252 260 216 144
25 24 21 18 16 15 12 10 7 5 2 0 359 355 352 351 350 346 348 351 345 337 327 310 297 288 255 249 233 169 204 223 235 217 200 202 188 191 220 257 236 248 264 264 253 153 174
24 22 20 18 16 14 12 9 6 4 1 359 357 355 351 352 349 344 350 347 346 344 4 352 303 275 258 282 260 226 208 222 225 229 223 211 199 216 245 268 312 227 241 253 245 180 162
23 22 20 18 16 13 11 8 7 6 3 360 356 353 349 349 347 341 348 345 346 342 335 348 324 283 265 270 273 306 232 222 206 210 213 205 200 223 246 220 308 243 241 223 221 183 153
24 22 21 18 14 11 10 9 7 6 4 1 357 350 346 344 347 342 343 346 359 7 328 335 316 301 281 354 320 305 281 203 194 191 195 198 202 168 221 161 215 220 195 227 230 194 159
23 22 20 16 12 10 8 6 4 2 359 357 355 352 344 343 346 342 347 359 13 346 312 284 270 269 282 293 291 285 329 197 203 181 177 196 193 206 213 210 233 250 216 251 264 203 195
22 20 17 13 9 8 7 5 3 0 357 353 350 347 343 341 344 352 359 29 7 328 303 319 324 282 284 310 299 265 303 206 188 209 179 158 218 217 192 210 210 236 242 253 268 269 171
20 17 14 12 9 8 6 5 2 360 355 350 347 345 340 338 343 345 359 359 355 353 290 298 353 16 0 322 244 295 292 277 212 214 203 209 233 210 201 224 220 222 227 243 233 286 304
17 15 11 8 7 6 3 1 358 356 352 348 346 346 340 333 0 357 357 347 353 340 32 279 1 14 358 344 263 359 315 243 256 222 219 226 236 198 212 220 209 221 225 240 248 247 253
12 9 5 3 2 1 360 358 355 352 350 348 345 349 343 341 347 359 354 354 346 24 327 61 17 19 1 31 332 344 4 335 224 251 180 223 200 219 216 218 205 224 218 233 241 229 260
4 2 360 358 357 355 355 355 351 349 349 347 347 348 337 345 14 3 355 350 5 52 268 329 37 357 2 15 350 355 5 9 306 223 261 233 241 210 228 227 222 206 213 248 241 185 242
356 354 353 353 353 352 350 348 348 348 350 347 347 348 326 333 357 1 347 353 44 114 342 360 357 7 20 352 343 15 5 14 11 327 235 232 236 237 223 220 223 218 153 223 256 227 230
349 348 347 347 347 346 347 345 346 347 349 348 348 348 348 80 358 351 341 34 78 348 33 325 353 19 23 3 347 348 1 358 30 9 313 216 234 217 217 214 206 214 207 163 209 196 229
342 342 341 342 341 343 343 343 344 344 348 350 349 11 73 22 329 313 335 10 221 343 322 350 1 26 16 356 330 352 357 162 41 33 10 331 234 248 222 218 195 203 213 184 143 244 150
334 336 337 338 339 342 340 342 342 344 346 352 350 359 49 350 320 296 96 232 268 312 347 42 50 46 340 349 11 349 339 317 352 23 359 304 292 236 231 213 223 210 166 188 177 223 236
331 334 334 335 338 339 338 341 340 345 345 352 352 341 337 338 331 303 178 258 326 358 41 59 51 347 304 318 358 316 294 337 358 342 345 317 259 299 268 215 215 195 207 198 158 157 216
329 331 331 333 337 338 339 340 340 346 343 354 350 341 340 339 42 21 33 326 320 5 14 40 57 21 325 305 283 324 297 275 322 4 331 319 285 283 240 237 269 214 192 197 203 213 208
328 329 331 332 335 337 337 338 340 346 348 347 338 298 342 23 47 351 321 312 315 358 344 51 335 98 206 238 258 184 265 296 304 22 12 348 344 314 305 21 276 208 218 208 159 140 205
328 330 333 332 334 335 336 337 339 343 347 347 335 345 335 20 31 40 332 289 327 331 292 9 272 307 311 295 216 245 265 307 352 317 350 5 261 254 278 296 329 257 226 203 192 197 192
328 332 330 332 333 334 334 334 335 338 346 347 343 327 2 308 335 325 296 266 300 325 351 352 332 300 297 270 270 239 295 267 357 326 84 355 269 263 268 277 272 260 257 208 195 186 195
330 329 331 332 332 332 330 332 332 333 339 343 303 302 275 278 272 295 292 292 308 326 346 311 282 317 310 231 224 276 260 266 157 176 338 232 267 305 290 257 220 239 249 260 209 180 179
329 329 331 330 330 329 329 330 328 331 327 320 290 288 262 250 267 264 255 294 296 309 290 267 315 306 287 276 271 278 253 256 204 165 197 202 256 346 269 320 186 78 342 335 203 184 183
330 330 330 328 329 330 330 329 326 325 302 283 291 286 217 262 224 228 260 279 289 288 287 296 308 322 287 301 289 297 274 264 228 212 190 209 243 208 268 316 148 127 34 29 77 42 14
331 330 329 329 331 333 330 329 326 319 300 287 294 283 246 257 258 276 272 280 303 303 280 274 312 303 318 281 294 287 352 254 234 211 208 206 243 269 291 271 226 22 11 340 343 37 9
331 330 330 329 334 335 333 331 330 325 306 290 295 284 261 270 245 263 280 294 303 303 303 276 339 350 352 51 258 234 279 256 45 344 164 217 247 231 307 335 52 9 333 332 141 39 358
332 331 332 333 338 337 336 331 329 328 321 291 290 298 268 249 286 315 268 279 275 285 284 297 333 337 16 20 303 220 211 348 37 20 54 268 264 241 244 72 65 359 347 20 64 27 13
333 334 335 337 340 338 334 331 331 329 324 295 318 327 299 265 299 310 310 269 279 234 312 317 353 4 355 21 345 337 351 360 49 20 4 29 14 2 336 51 30 350 348 61 334 8 17
334 336 338 341 343 337 334 334 338 338 287 241 317 334 340 267 288 330 344 9 333 323 291 326 353 3 17 12 334 295 314 9 3 59 359 48 88 297 21 159 237 6 315 301 11 9 0